Back to catalog

STARLINK-11350

AliveCommunicationsVLEO
NORAD 61540·PAYLOAD·🇺🇸 United States

Launched Oct 15, 2024 from Vandenberg Space Force Base

Loading…

Next Passes (next 24 hours)

TLE

FreshSource: CelesTrak SupGP

Epoch: Sep 14, 2026, 22:38 UTC

1 61540C 24184J   26257.94354167 -.00004868  00000+0 -40079-4 0  2574
2 61540  53.1565  22.9420 0001126  82.8016  31.1211 15.69723553    13

Track STARLINK-11350 in real time with AllMySat

Download on the App Store